[[{"header":{"parameterUnit":"m.s-1","parameterCategory":1,"la1":30.2991,"la2":30.254,"lo1":-89.0895,"lo2":-89.0444,"dy":0.0017,"dx":0.0017,"nx":28,"ny":28,"refTime":"2024-06-19T21:00:00:Z","depth":0,"parameterNumber":2,"parameterNumberName":"U-component_of_WINDS"},"data":[0,0,0,0,0,0,0,0,0,0,0,0,0,0,0,0,0,0,0,0,0,0,0,0,0,0,0,0,0,0,0,0,0,0,0,0,0,0,0,0,0,0,0,0,0,0,0,0,0,0,0,0,0,0,0,0,0,0,-3.9446,-3.9447,0,-3.9504,-3.9505,-3.9505,-3.939,-3.9386,-3.9383,-3.9379,-3.9441,-3.9446,-3.9452,0,0,0,0,0,0,0,0,0,0,0,0,0,-3.9238,-3.9243,-3.9446,-3.9447,-3.9447,-3.9504,-3.9505,-3.9505,-3.9391,-3.9386,-3.9382,-3.9377,-3.944,-3.9446,-3.9452,0,0,0,0,0,0,0,0,0,0,0,0,0,-3.9316,-3.9244,-3.9446,-3.9397,-3.9393,-3.9504,-3.9505,-3.9506,-3.9392,-3.9386,-3.938,-3.9375,-3.9438,-3.9445,-3.9453,-3.9615,0,0,-3.9477,-3.948,0,0,0,0,0,0,0,0,-3.9312,-3.9324,-3.9403,-3.9401,-3.9396,-3.9434,-3.9454,-3.9542,-3.9393,-3.9392,-3.9379,-3.9372,-3.9444,-3.9451,-3.9474,-3.9618,-3.962,-3.9477,-3.9482,-3.9485,-3.9488,0,0,0,0,0,0,0,-3.9306,-3.9321,-3.9469,-3.9405,-3.9401,-3.9373,-3.9378,-3.947,-3.9449,-3.9392,-3.9384,-3.9392,-3.9441,-3.9467,-3.9475,-3.9621,-3.9477,-3.9484,-3.9489,-3.9492,-3.9901,-3.9907,0,0,0,0,0,0,-3.9307,-3.9317,-3.9467,-3.9471,-3.9339,-3.9381,-3.9386,-3.9428,-3.9448,-3.9445,-3.9397,-3.9386,-3.9456,-3.9466,-3.9476,-3.9668,-3.9485,-3.9493,-3.9497,-3.9895,-3.9903,-3.9909,0,0,0,0,0,0,-3.9303,-3.9321,-3.9465,-3.9392,-3.9408,-3.9391,-3.9438,-3.9432,-3.9458,-3.9452,-3.9447,-3.9427,-3.9452,-3.9465,-3.9581,-3.9669,-3.9496,-3.9503,-3.9888,-3.9897,-3.9906,-4.0053,0,0,0,0,0,0,-3.9297,-3.9321,-3.9381,-3.9394,-3.9412,-3.9568,-3.9443,-3.9437,-3.9471,-3.9458,-3.9479,-3.9477,-3.9449,-3.957,-3.9589,-3.9676,-3.9509,-3.988,-3.9892,-3.9903,-4.004,-4.0066,-4.0088,0,0,0,0,0,-3.929,-3.9421,-3.9385,-3.9404,-3.9487,-3.9573,-3.9584,-3.9548,-3.9479,-3.954,-3.9536,-3.9476,-3.9656,-3.9583,-3.9603,-3.9694,-3.9874,-3.9889,-3.9902,-4.0029,-4.0061,-4.0088,0,0,0,0,0,0,-3.942,-3.9422,-3.9382,-3.952,-3.9548,-3.9554,-3.963,-3.9582,-3.9631,-3.9617,-3.957,-3.9576,-3.9702,-3.9709,-3.9628,-3.9852,-3.9753,-3.9772,-3.9843,-3.9873,-3.9897,-3.9893,-3.9516,0,0,0,0,0,-3.9465,-3.9534,-3.9531,-3.9653,-3.9669,-3.9648,-3.9684,-3.9653,-3.968,-3.9692,-3.9696,-3.9725,-3.9788,-3.9831,-3.9888,-4.004,-4.0044,-4.0112,-4.0136,-4.0156,-4.0174,-4.0256,-4.0287,-3.9955,-3.9955,-3.9955,0,0,-3.9558,-3.9567,-3.9614,-3.968,-3.9697,-3.9771,-3.9658,-3.974,-3.9795,-3.9704,-3.9814,-3.9818,-3.9848,-3.9983,-4.0042,-3.9993,-4.0266,-4.0174,-4.019,-4.0197,-4.0274,-4.0305,-4.0333,-3.9965,-3.9963,-3.9961,0,0,-3.9766,-3.9779,-3.9883,-3.9903,-3.993,-3.9915,-3.994,-3.9954,-3.9953,-4.0062,-3.9996,-4.006,-4.0169,-4.0193,-4.022,-4.0436,-4.0384,-4.0456,-4.0583,-4.0664,-4.069,-4.0713,-4.0792,-4.0821,-4.0473,-4.0473,-4.0474,0,-3.9879,-3.9986,-3.9942,-4.003,-4.0061,-3.9981,-4.0087,-4.0108,-4.0154,-4.0178,-4.0121,-4.0257,-4.0271,-4.0411,-4.0464,-4.0487,-4.0516,-4.0455,-4.0689,-4.0712,-4.0733,-4.0808,-4.0838,-4.0482,-4.0481,-4.048,-4.0479,0,-4.0124,-4.0199,-4.028,-4.0325,-4.0366,-4.0462,-4.0434,-4.048,-4.0446,-4.0437,-4.055,-4.0564,-4.0623,-4.0654,-4.0622,-4.079,-4.0759,-4.0696,-4.0597,-4.0774,-4.0844,-4.0872,-4.0495,-4.0492,-4.0489,-4.0487,0,0,-4.0417,-4.0437,-4.0467,-4.0487,-4.0512,-4.057,-4.0662,-4.0719,-4.0761,-4.0794,-4.0872,-4.0966,-4.0908,-4.0939,-4.0908,-4.0979,-4.1152,-4.0908,-4.0908,-4.0955,-4.1341,-4.1389,-4.1423,-4.1117,-4.1122,-4.1126,-4.1339,0,-4.0625,-4.0783,-4.0747,-4.0904,-4.0974,-4.0898,-4.0979,-4.1004,-4.0998,-4.1057,-4.105,-4.1118,-4.1036,-4.1054,-4.112,-4.1117,-4.123,-4.1101,-4.1191,-4.1194,-4.1188,-4.1459,-4.1511,-4.1711,-4.1366,-4.137,-4.1374,0,-4.0888,-4.0932,-4.1096,-4.1109,-4.1137,-4.1211,-4.126,-4.1317,-4.1344,-4.1334,-4.1368,-4.1324,-4.1417,-4.1314,-4.1443,-4.1356,-4.139,-4.1394,-4.1401,-4.141,-4.1297,-4.1478,-4.1774,-4.1805,-4.1416,-4.1413,-4.141,0,-4.1089,-4.1188,-4.1299,-4.1318,-4.1336,-4.139,-4.14,-4.142,-4.1457,-4.1501,-4.1524,-4.1578,-4.1609,-4.1652,-4.1625,-4.1552,-4.1759,-4.1653,-4.1755,-4.1757,-4.1804,-4.1802,-4.2113,-4.1823,-4.1822,-4.1822,-4.1821,0,-4.1325,-4.143,-4.1389,-4.1458,-4.1572,-4.1529,-4.1644,-4.1645,-4.1664,-4.1733,-4.167,-4.1736,-4.1694,-4.1757,-4.1736,-4.1847,-4.186,-4.1857,-4.1851,-4.1864,-4.1865,-4.1888,-4.1874,-4.183,-4.1828,-4.1826,-4.1825,0,-4.157,-4.1546,-4.1663,-4.167,-4.1674,-4.1759,-4.1765,-4.183,-4.1818,-4.1906,-4.1924,-4.1907,-4.1978,-4.1954,-4.203,-4.2015,-4.2157,-4.2131,-4.2148,-4.2143,-4.2247,-4.2238,-4.2585,-4.2629,-4.2309,-4.2312,-4.2314,0,-4.1723,-4.1802,-4.1817,-4.1858,-4.1872,-4.1939,-4.1976,-4.1936,-4.1978,-4.2014,-4.2074,-4.2139,-4.2189,-4.2306,-4.2302,-4.236,-4.2337,-4.2454,-4.2345,-4.2357,-4.2341,-4.2338,-4.2346,-4.2477,-4.248,-4.2483,-4.2486,0,-4.2,-4.1984,-4.204,-4.2092,-4.2138,-4.2177,-4.221,-4.2248,-4.221,-4.226,-4.2331,-4.237,-4.2447,-4.2513,-4.2565,-4.2577,-4.2527,-4.252,-4.2547,-4.2563,-4.257,-4.257,-4.221,-4.2512,-4.251,-4.2508,-4.2506,-4.2505,-4.2205,-4.2271,-4.2293,-4.2357,-4.2377,-4.241,-4.2471,-4.2467,-4.2525,-4.2585,-4.2558,-4.2641,-4.2665,-4.273,-4.2749,-4.2814,-4.2769,-4.2808,-4.2818,-4.2829,-4.2843,-4.2558,-4.2823,-4.2822,-4.2821,-4.2821,-4.282,0,-4.248,-4.249,-4.2549,-4.2598,-4.2648,-4.2594,-4.2628,-4.2675,-4.2748,-4.2775,-4.2825,-4.2907,-4.2971,-4.2971,-4.3031,-4.3083,-4.3061,-4.31,-4.3097,-4.3101,-4.2879,-4.2851,-4.3117,-4.3117,-4.3117,-4.3116,-4.3116,-4.3116,-4.263,-4.2739,-4.2727,-4.2846,-4.2855,-4.2935,-4.2959,-4.299,-4.3011,-4.3106,-4.3158,-4.3156,-4.3173,-4.3233,-4.329,-4.3288,-4.3314,-4.3362,-4.3353,-4.3146,-4.3116,-4.3089,-4.3062,-4.3368,-4.3368,-4.3569,-4.3571,-4.3573]},{"header":{"parameterUnit":"m.s-1","parameterCategory":1,"la1":30.2991,"la2":30.254,"lo1":-89.0895,"lo2":-89.0444,"dy":0.0017,"dx":0.0017,"nx":28,"ny":28,"refTime":"2024-06-19T21:00:00:Z","depth":0,"parameterNumber":3,"parameterNumberName":"V-component_of_WINDS"},"data":[0,0,0,0,0,0,0,0,0,0,0,0,0,0,0,0,0,0,0,0,0,0,0,0,0,0,0,0,0,0,0,0,0,0,0,0,0,0,0,0,0,0,0,0,0,0,0,0,0,0,0,0,0,0,0,0,0,0,-2.3758,-2.3758,0,-2.3732,-2.3732,-2.3732,-2.3715,-2.3715,-2.3715,-2.3715,-2.3688,-2.3687,-2.3687,0,0,0,0,0,0,0,0,0,0,0,0,0,-2.379,-2.379,-2.3758,-2.3758,-2.3757,-2.3732,-2.3732,-2.3732,-2.3715,-2.3715,-2.3715,-2.3715,-2.3688,-2.3687,-2.3686,0,0,0,0,0,0,0,0,0,0,0,0,0,-2.3772,-2.379,-2.3758,-2.3746,-2.3745,-2.3732,-2.3732,-2.3731,-2.3715,-2.3715,-2.3715,-2.3715,-2.3688,-2.3687,-2.3686,-2.3684,0,0,-2.3683,-2.3683,0,0,0,0,0,0,0,0,-2.3773,-2.3771,-2.3748,-2.3747,-2.3745,-2.3727,-2.3733,-2.3715,-2.3715,-2.3726,-2.3715,-2.3715,-2.3701,-2.3699,-2.3694,-2.3682,-2.3681,-2.3683,-2.3683,-2.3682,-2.3682,0,0,0,0,0,0,0,-2.3774,-2.3772,-2.3748,-2.3748,-2.3746,-2.3741,-2.3738,-2.373,-2.3715,-2.3725,-2.3724,-2.3721,-2.37,-2.3695,-2.3694,-2.3681,-2.3683,-2.3683,-2.3682,-2.3682,-2.3662,-2.3662,0,0,0,0,0,0,-2.3778,-2.3773,-2.3749,-2.3747,-2.3759,-2.3741,-2.3738,-2.3733,-2.3715,-2.3712,-2.3721,-2.3721,-2.3697,-2.3695,-2.3693,-2.3686,-2.3682,-2.3682,-2.3681,-2.3662,-2.3662,-2.3662,0,0,0,0,0,0,-2.3778,-2.3776,-2.375,-2.3759,-2.3756,-2.374,-2.3735,-2.3732,-2.3728,-2.3712,-2.3709,-2.372,-2.3697,-2.3694,-2.3685,-2.3685,-2.3681,-2.368,-2.3662,-2.3662,-2.3662,-2.3675,0,0,0,0,0,0,-2.3779,-2.3776,-2.3776,-2.376,-2.3755,-2.3744,-2.3735,-2.3732,-2.3726,-2.3725,-2.3709,-2.3707,-2.3696,-2.3687,-2.3684,-2.3684,-2.368,-2.3662,-2.3662,-2.3662,-2.3674,-2.3675,-2.3676,0,0,0,0,0,-2.3781,-2.3781,-2.3776,-2.3773,-2.3755,-2.3744,-2.3741,-2.373,-2.3726,-2.3725,-2.3714,-2.3707,-2.3686,-2.3686,-2.3683,-2.3682,-2.3662,-2.3662,-2.3662,-2.3674,-2.3675,-2.3676,0,0,0,0,0,0,-2.3797,-2.3778,-2.3773,-2.3768,-2.3757,-2.3741,-2.3739,-2.3732,-2.3722,-2.3721,-2.3707,-2.3704,-2.3696,-2.3688,-2.3689,-2.3677,-2.3673,-2.3672,-2.3683,-2.3684,-2.3685,-2.3686,-2.3679,0,0,0,0,0,-2.38,-2.3794,-2.3777,-2.3774,-2.3769,-2.3755,-2.375,-2.3742,-2.3731,-2.3726,-2.3715,-2.3704,-2.3694,-2.3689,-2.3679,-2.3673,-2.3668,-2.3671,-2.3672,-2.3673,-2.3672,-2.3666,-2.3666,-2.3663,-2.3663,-2.3663,0,0,-2.3806,-2.3795,-2.3792,-2.3777,-2.3768,-2.3761,-2.3752,-2.3745,-2.3738,-2.3725,-2.3716,-2.3707,-2.3694,-2.3686,-2.3682,-2.3679,-2.3672,-2.3673,-2.3673,-2.3673,-2.3666,-2.3667,-2.3667,-2.3663,-2.3663,-2.3663,0,0,-2.3814,-2.3805,-2.3801,-2.3792,-2.3778,-2.3768,-2.3767,-2.3752,-2.3745,-2.3736,-2.3725,-2.3717,-2.3701,-2.3692,-2.3685,-2.3685,-2.3678,-2.3683,-2.3687,-2.3682,-2.3682,-2.3682,-2.3681,-2.3681,-2.3683,-2.3683,-2.3683,0,-2.3823,-2.3812,-2.38,-2.3793,-2.3785,-2.3772,-2.3767,-2.3759,-2.3743,-2.3738,-2.3735,-2.3713,-2.3704,-2.3692,-2.3692,-2.3687,-2.3684,-2.3685,-2.3683,-2.3683,-2.3683,-2.3682,-2.3681,-2.3683,-2.3683,-2.3683,-2.3683,0,-2.3823,-2.3816,-2.3814,-2.3798,-2.379,-2.3784,-2.377,-2.3764,-2.3756,-2.3746,-2.3735,-2.3722,-2.3709,-2.3706,-2.3698,-2.3692,-2.3691,-2.3686,-2.3681,-2.3684,-2.3683,-2.3682,-2.3684,-2.3684,-2.3684,-2.3684,0,0,-2.3842,-2.3818,-2.3817,-2.3809,-2.3792,-2.3785,-2.3777,-2.3764,-2.3758,-2.3747,-2.3739,-2.3725,-2.372,-2.3712,-2.3703,-2.3698,-2.3697,-2.3693,-2.3692,-2.3693,-2.3687,-2.3691,-2.3691,-2.3691,-2.3691,-2.3691,-2.3688,0,-2.3846,-2.3832,-2.3819,-2.3809,-2.3801,-2.3787,-2.378,-2.3768,-2.3758,-2.3749,-2.3737,-2.3727,-2.3721,-2.3716,-2.371,-2.3698,-2.3695,-2.3698,-2.3683,-2.3682,-2.3686,-2.369,-2.3694,-2.3692,-2.3688,-2.3687,-2.3687,0,-2.3849,-2.3837,-2.3827,-2.3808,-2.3804,-2.3798,-2.3784,-2.3776,-2.3761,-2.3754,-2.3744,-2.3734,-2.3723,-2.3719,-2.3704,-2.3706,-2.3699,-2.3692,-2.3691,-2.3689,-2.3685,-2.3687,-2.3691,-2.3691,-2.3687,-2.3687,-2.3687,0,-2.3861,-2.3843,-2.3834,-2.3828,-2.3807,-2.3802,-2.3793,-2.3778,-2.3771,-2.3758,-2.3752,-2.3738,-2.3731,-2.372,-2.3705,-2.3704,-2.3691,-2.3686,-2.3684,-2.3684,-2.3681,-2.3682,-2.3684,-2.3678,-2.3678,-2.3678,-2.3678,0,-2.3867,-2.386,-2.3839,-2.3834,-2.3825,-2.381,-2.3802,-2.3792,-2.3778,-2.3769,-2.3756,-2.3748,-2.373,-2.3719,-2.3708,-2.3696,-2.3693,-2.3686,-2.3683,-2.3687,-2.3687,-2.3681,-2.3681,-2.3678,-2.3678,-2.3678,-2.3678,0,-2.388,-2.3865,-2.3854,-2.3834,-2.3829,-2.3824,-2.3806,-2.3799,-2.3788,-2.3777,-2.3773,-2.3755,-2.3741,-2.3726,-2.3707,-2.3699,-2.3687,-2.3684,-2.3692,-2.369,-2.3688,-2.3688,-2.3686,-2.3684,-2.3681,-2.3681,-2.3681,0,-2.3884,-2.3878,-2.3858,-2.3851,-2.3842,-2.3831,-2.3822,-2.3807,-2.3798,-2.378,-2.3775,-2.376,-2.3747,-2.3725,-2.371,-2.3695,-2.369,-2.369,-2.3688,-2.3691,-2.3688,-2.3688,-2.3687,-2.3691,-2.3691,-2.3691,-2.3691,0,-2.3892,-2.3885,-2.3873,-2.3858,-2.3849,-2.3836,-2.3824,-2.3818,-2.38,-2.3791,-2.3776,-2.3766,-2.3746,-2.3731,-2.3714,-2.3703,-2.3693,-2.3692,-2.369,-2.3694,-2.3698,-2.3694,-2.3693,-2.3692,-2.3692,-2.3692,-2.3692,-2.3692,-2.39,-2.3893,-2.3877,-2.3864,-2.3853,-2.384,-2.3832,-2.3819,-2.3807,-2.379,-2.3781,-2.3766,-2.3749,-2.3725,-2.3714,-2.3702,-2.3699,-2.3697,-2.3696,-2.3696,-2.3696,-2.3701,-2.3699,-2.3699,-2.3698,-2.3698,-2.3698,0,-2.3906,-2.3895,-2.3883,-2.3865,-2.3854,-2.3846,-2.383,-2.3822,-2.3809,-2.3794,-2.3782,-2.3764,-2.3748,-2.3731,-2.3714,-2.3707,-2.3702,-2.3703,-2.3703,-2.3701,-2.37,-2.3703,-2.3707,-2.3707,-2.3707,-2.3707,-2.3707,-2.3707,-2.3908,-2.3896,-2.3887,-2.3869,-2.3857,-2.3842,-2.3834,-2.3822,-2.381,-2.3791,-2.3778,-2.3767,-2.375,-2.3732,-2.3717,-2.3712,-2.3706,-2.3708,-2.3702,-2.3702,-2.3701,-2.37,-2.3702,-2.3707,-2.3707,-2.3703,-2.3703,-2.3703]}]]